Tracking 19199 objects as of 25-Jun-2018
HD Live streaming from Space Station
objects crossing your sky now

NIMBUS 2 DEB

Track NIMBUS 2 DEB now!
10-day predictions


NORAD ID: 26816
Int'l Code: 1966-040L
Perigee: 1,040.8 km
Apogee: 1,130.7 km
Inclination: 100.3 °
Period: 106.8 minutes
Semi major axis: 7456 km
RCS: 0.0128 m2 (small)
Launch date: May 15, 1966
Source: United States (US)
Launch site: AIR FORCE WESTERN TEST RANGE (AFWTR)

Note: This is SATELLITE DEBRIS
aabbcc
Your satellite tracking list
Your tracking list is empty




NASA's NSSDC Master Catalog

Two Line Element Set (TLE):
1 26816U 66040L   18175.34822881 +.00000401 +00000-0 +71766-3 0  9992
2 26816 100.3346 322.6020 0060291 017.9853 010.8815 13.48274776850351
Source of the keplerian elements: AFSPC